Starlink 1612

operational
NORAD ID: 46164 Int'l Des: 2020-057 Owner: SPXS Country: US Constellation: starlink
LEOCIRCULAR

关于 Starlink 1612

正在加载描述...

实时位置

正在加载3D地球...

即将过境

高度历史

Altitude vs Time

uPlot chart will show altitude changes over time

两行轨道根数

1 46164U 20057AZ 25306.58335647 .00072564 00000-0 18585-2 0 9995
2 46164 53.0467 108.6414 0012537 149.0324 230.6848 15.38682041 5872
Epoch: Nov 2, 2025 • Age: 34 hours

当前状态

高度 468.1 km
速度 7.63 km/s
星下点 -50.09°S, 54.22°W
发射日期 Aug 18, 2020
运行时间 5.2 years
类型 internet

技术详情

分类 Payload
质量 260.00 kg
干质量 248.00 kg
总质量 260.00 kg
长度 0.20 m
直径 2.80 m
跨度 9.00 m
形状 Box + pan
制造商 SPXS
平台类型 Starlink
阶段状态 In Orbit
所有者/国家 SPXS/US

大型星座

Loading constellations...